[[{"header":{"parameterUnit":"m.s-1","parameterCategory":2,"la1":30.2992,"la2":30.254,"lo1":-89.0895,"lo2":-89.0443,"dy":0.0025,"dx":0.0025,"nx":19,"ny":19,"refTime":"2026-04-06T21:00:00:Z","depth":"0","parameterNumber":2,"parameterNumberName":"U-component_of_CURRENTS"},"data":[0,0,0,0.1182,0.1181,0.1157,0.1157,0.1139,0.1139,0,0,0,0,0,0,0,0,0,0,0,0.1189,0.1189,0.1182,0.1181,0.1157,0.1157,0.1139,0.1139,0,0,0,0,0,0,0,0,0,0,0,0.1189,0.1189,0.1189,0.1181,0.1157,0.1157,0.1139,0.1153,0,0,0,0,0,0,0,0,0,0,0.1174,0.1183,0.1189,0.1189,0.1181,0.1157,0.1157,0.1153,0.1152,0.1157,0,0.1156,0,0.1152,0.1139,0.1139,0,0,0,0.1174,0.1184,0.1178,0.1189,0.1181,0.1157,0.1166,0.1152,0.1151,0.1155,0.1156,0.1155,0.1151,0.1139,0.1139,0.116,0.1161,0,0,0.1176,0.1183,0.1179,0.1177,0.118,0.1167,0.1165,0.1151,0.1152,0.1156,0.1155,0.1151,0.1139,0.1139,0.116,0.1161,0,0,0,0.1184,0.1184,0.1178,0.1178,0.1175,0.1166,0.1165,0.1153,0.1151,0.1155,0.1151,0.1139,0.1139,0.116,0.116,0.1181,0,0,0,0.1185,0.119,0.1179,0.1183,0.1175,0.1162,0.1166,0.1152,0.115,0.1151,0.1139,0.1139,0.116,0.116,0.118,0.1187,0,0,0,0.1189,0.119,0.1189,0.1183,0.1176,0.1162,0.1159,0.1151,0.1148,0.1139,0.1139,0.1159,0.116,0.1179,0.1185,0.12,0,0,0,0.1195,0.1195,0.1189,0.1189,0.1176,0.1172,0.1159,0.115,0.1143,0.1139,0.116,0.116,0.1179,0.1184,0.1199,0.1167,0.117,0,0,0.1198,0.1196,0.1196,0.119,0.1186,0.1175,0.118,0.1162,0.1156,0.1163,0.1164,0.1181,0.1185,0.12,0.1202,0.1204,0,0,0,0.1198,0.1196,0.1194,0.1191,0.1188,0.1189,0.1176,0.1179,0.1182,0.1156,0.1187,0.1189,0.1198,0.1177,0.1178,0.1035,0.1163,0.1163,0.1163,0.1205,0.1201,0.1197,0.1193,0.1197,0.12,0.1206,0.121,0.1199,0.1209,0.1212,0.1243,0.1222,0.1222,0.1075,0.1219,0.1219,0.1219,0.1219,0.1203,0.1194,0.1199,0.1193,0.1203,0.1212,0.1235,0.1236,0.1255,0.1241,0.1248,0.1206,0.1225,0.1067,0.122,0.122,0.122,0.122,0.1219,0.1198,0.1191,0.119,0.1186,0.1197,0.1213,0.1238,0.1257,0.1273,0.1284,0.1255,0.1254,0.1111,0.1285,0.1286,0.1286,0.1286,0.1286,0.1286,0.1188,0.1185,0.1178,0.1174,0.1175,0.1195,0.1235,0.1259,0.1278,0.1276,0.1275,0.1101,0.1264,0.1255,0.1288,0.1287,0.1287,0.1287,0.1287,0.1167,0.1169,0.1154,0.1152,0.1149,0.1129,0.1194,0.1226,0.1265,0.127,0.1088,0.1272,0.1261,0.1259,0.1251,0.128,0.128,0.128,0.128,0.1153,0.1153,0.1126,0.1111,0.1105,0.1097,0.107,0.1085,0.1057,0.0993,0.1003,0.0955,0.0962,0.093,0.0936,0.092,0.0864,0.0863,0.0863,0.1137,0.1132,0.11,0.1079,0.1068,0.104,0.0944,0.0852,0.0818,0.0831,0.0808,0.0826,0.0741,0.0763,0.0703,0.0723,0.0694,0,0]},{"header":{"parameterUnit":"m.s-1","parameterCategory":2,"la1":30.2992,"la2":30.254,"lo1":-89.0895,"lo2":-89.0443,"dy":0.0025,"dx":0.0025,"nx":19,"ny":19,"refTime":"2026-04-06T21:00:00:Z","depth":"0","parameterNumber":3,"parameterNumberName":"V-component_of_CURRENTS"},"data":[0,0,0,-0.0188,-0.0189,-0.0208,-0.0208,-0.0211,-0.0211,0,0,0,0,0,0,0,0,0,0,0,-0.0182,-0.0182,-0.0188,-0.0189,-0.0208,-0.0208,-0.0211,-0.0211,0,0,0,0,0,0,0,0,0,0,0,-0.0182,-0.0182,-0.0182,-0.0189,-0.0208,-0.0208,-0.0211,-0.0203,0,0,0,0,0,0,0,0,0,0,-0.0187,-0.0181,-0.0182,-0.0182,-0.0189,-0.0208,-0.0208,-0.0203,-0.0203,-0.0193,0,-0.0193,0,-0.0198,-0.021,-0.021,0,0,0,-0.0195,-0.0181,-0.0186,-0.0182,-0.0189,-0.0208,-0.0201,-0.0203,-0.0204,-0.0194,-0.0193,-0.0193,-0.0198,-0.0209,-0.0209,-0.017,-0.017,0,0,-0.0194,-0.0186,-0.0185,-0.0186,-0.0188,-0.02,-0.0202,-0.0204,-0.0202,-0.0193,-0.0193,-0.0198,-0.0209,-0.0209,-0.0171,-0.017,0,0,0,-0.0186,-0.0185,-0.0191,-0.0186,-0.0189,-0.0201,-0.0202,-0.0202,-0.0204,-0.0193,-0.0198,-0.0209,-0.0209,-0.0171,-0.0171,-0.0138,0,0,0,-0.0186,-0.0181,-0.019,-0.0186,-0.0189,-0.0198,-0.02,-0.0204,-0.0204,-0.0198,-0.0209,-0.0209,-0.0171,-0.0171,-0.0139,-0.0114,0,0,0,-0.0182,-0.018,-0.0181,-0.0186,-0.0191,-0.0199,-0.0201,-0.0204,-0.0206,-0.021,-0.0209,-0.0172,-0.0171,-0.0141,-0.0117,-0.0092,0,0,0,-0.0176,-0.0168,-0.0181,-0.0171,-0.0191,-0.0182,-0.0201,-0.02,-0.0201,-0.0209,-0.0171,-0.0171,-0.0141,-0.0119,-0.0094,-0.0063,-0.0052,0,0,-0.0162,-0.0166,-0.016,-0.0172,-0.0155,-0.018,-0.0155,-0.017,-0.0185,-0.0171,-0.017,-0.0139,-0.0117,-0.0092,-0.0019,-0.0009,0,0,0,-0.0153,-0.0146,-0.0144,-0.0138,-0.0139,-0.0125,-0.0142,-0.0145,-0.0143,-0.0181,-0.0132,-0.012,-0.0105,-0.009,-0.0082,-0.0158,-0.0167,-0.0167,-0.0167,-0.0119,-0.0121,-0.0102,-0.0099,-0.0091,-0.0088,-0.0079,-0.0083,-0.0108,-0.0102,-0.0088,-0.0039,-0.0023,-0.0016,-0.0095,-0.0089,-0.0089,-0.0089,-0.0089,-0.0085,-0.0069,-0.0067,-0.0051,-0.0038,-0.0018,-0.0011,-0.0026,-0.0014,-0.0046,-0.0034,-0.005,-0.0006,-0.0092,-0.0087,-0.0087,-0.0087,-0.0088,-0.0088,-0.0055,-0.0046,-0.004,-0.0014,0.0018,0.0026,0.007,0.0053,0.0026,0.0037,0.0045,0.0044,-0.0036,0.0037,0.0037,0.0037,0.0037,0.0037,0.0038,-0.0025,-0.0017,0.0004,0.0025,0.0051,0.009,0.0113,0.0128,0.012,0.0095,0.0095,-0.0022,-0.0001,-0.001,0.0041,0.004,0.004,0.004,0.0039,0.0012,0.0011,0.0046,0.0069,0.0124,0.0174,0.0197,0.0228,0.0225,0.0229,0.0071,0.0125,0.0119,0.0112,0.0106,0.0185,0.0185,0.0185,0.0185,0.0037,0.0037,0.0083,0.0124,0.0182,0.0214,0.027,0.0273,0.0196,0.0131,0.0087,0.0048,0.0046,0.0032,0.0027,0.0017,0.0071,0.0071,0.0071,0.0061,0.0074,0.0107,0.0138,0.0203,0.0257,0.0279,0.022,0.0105,0.0055,-0.0025,-0.002,-0.0091,-0.0089,-0.0123,-0.0124,-0.0144,0,0]}],[{"header":{"parameterUnit":"m.s-1","parameterCategory":2,"la1":30.2992,"la2":30.254,"lo1":-89.0895,"lo2":-89.0443,"dy":0.0025,"dx":0.0025,"nx":19,"ny":19,"refTime":"2026-04-06T21:00:00:Z","depth":"2","parameterNumber":2,"parameterNumberName":"U-component_of_CURRENTS"},"data":[0,0,0,0.1217,0.1216,0.1195,0.1195,0.1182,0.1182,0,0,0,0,0,0,0,0,0,0,0,0.1223,0.1223,0.1217,0.1216,0.1195,0.1195,0.1182,0.1182,0,0,0,0,0,0,0,0,0,0,0,0.1223,0.1223,0.1223,0.1216,0.1195,0.1195,0.1182,0.1193,0,0,0,0,0,0,0,0,0,0,0.1211,0.1218,0.1223,0.1223,0.1216,0.1195,0.1195,0.1193,0.1192,0.1198,0,0.1198,0,0.1193,0.1182,0.1182,0,0,0,0.121,0.1219,0.1214,0.1223,0.1216,0.1195,0.1203,0.1193,0.1192,0.1197,0.1198,0.1197,0.1193,0.1182,0.1182,0.1205,0.1205,0,0,0.1211,0.1218,0.1215,0.1214,0.1215,0.1204,0.1202,0.1192,0.1193,0.1197,0.1197,0.1193,0.1182,0.1182,0.1205,0.1205,0,0,0,0.1219,0.1219,0.1213,0.1214,0.1211,0.1203,0.1202,0.1193,0.1192,0.1196,0.1193,0.1182,0.1182,0.1204,0.1205,0.1225,0,0,0,0.1219,0.1223,0.1214,0.1218,0.1212,0.1201,0.1203,0.1192,0.1191,0.1193,0.1182,0.1182,0.1204,0.1205,0.1223,0.123,0,0,0,0.1223,0.1224,0.1223,0.1218,0.1212,0.1201,0.1198,0.1192,0.1189,0.1182,0.1182,0.1204,0.1205,0.1222,0.1228,0.1242,0,0,0,0.1228,0.1228,0.1223,0.1223,0.1212,0.121,0.1198,0.1191,0.1186,0.1182,0.1204,0.1205,0.1222,0.1227,0.1241,0.1203,0.1205,0,0,0.1231,0.1229,0.1229,0.1224,0.1221,0.1212,0.1218,0.1203,0.1198,0.1207,0.1207,0.1224,0.1228,0.1242,0.1237,0.1237,0,0,0,0.1231,0.1229,0.1228,0.1225,0.1224,0.1227,0.1216,0.122,0.1224,0.1199,0.123,0.1232,0.1241,0.1216,0.1216,0.1208,0.1207,0.1207,0.1207,0.1237,0.1234,0.1231,0.1228,0.1233,0.1238,0.1245,0.125,0.1241,0.125,0.1253,0.1284,0.1258,0.1258,0.126,0.126,0.126,0.126,0.126,0.1234,0.1226,0.1232,0.1227,0.1239,0.1248,0.1273,0.1275,0.1295,0.1281,0.1288,0.1244,0.126,0.1262,0.1262,0.1261,0.1261,0.1261,0.1261,0.1228,0.1222,0.1222,0.122,0.1232,0.1249,0.1275,0.1294,0.1311,0.1322,0.129,0.1289,0.1291,0.1324,0.1324,0.1324,0.1324,0.1324,0.1324,0.1217,0.1216,0.1209,0.1207,0.1209,0.123,0.127,0.1295,0.1311,0.1308,0.1308,0.1305,0.1303,0.1295,0.1326,0.1325,0.1325,0.1325,0.1325,0.1196,0.1198,0.1185,0.1183,0.1182,0.1163,0.1227,0.1256,0.1294,0.1297,0.1301,0.1301,0.129,0.1289,0.128,0.1305,0.1305,0.1305,0.1305,0.1181,0.1182,0.1156,0.1142,0.1138,0.1131,0.1098,0.1094,0.1157,0.116,0.1166,0.1133,0.1138,0.1116,0.1119,0.1106,0.1085,0.1085,0.1084,0.1166,0.1161,0.1131,0.1111,0.1102,0.1073,0.0969,0.0852,0.0912,0.1072,0.1093,0.1297,0.1265,0.1266,0.1244,0.1244,0.1228,0,0]},{"header":{"parameterUnit":"m.s-1","parameterCategory":2,"la1":30.2992,"la2":30.254,"lo1":-89.0895,"lo2":-89.0443,"dy":0.0025,"dx":0.0025,"nx":19,"ny":19,"refTime":"2026-04-06T21:00:00:Z","depth":"2","parameterNumber":3,"parameterNumberName":"V-component_of_CURRENTS"},"data":[0,0,0,-0.006,-0.006,-0.0086,-0.0087,-0.009,-0.0089,0,0,0,0,0,0,0,0,0,0,0,-0.0052,-0.0052,-0.006,-0.006,-0.0086,-0.0087,-0.009,-0.0089,0,0,0,0,0,0,0,0,0,0,0,-0.0052,-0.0052,-0.0052,-0.0061,-0.0086,-0.0087,-0.009,-0.0079,0,0,0,0,0,0,0,0,0,0,-0.0058,-0.0053,-0.0052,-0.0052,-0.0061,-0.0086,-0.0087,-0.0079,-0.008,-0.0067,0,-0.0069,0,-0.0075,-0.0088,-0.0088,0,0,0,-0.0066,-0.0053,-0.0058,-0.0052,-0.0061,-0.0086,-0.0076,-0.008,-0.008,-0.0068,-0.007,-0.007,-0.0075,-0.0088,-0.0088,-0.005,-0.005,0,0,-0.0065,-0.0059,-0.0057,-0.0058,-0.0064,-0.0075,-0.0077,-0.008,-0.008,-0.007,-0.007,-0.0076,-0.0088,-0.0088,-0.0051,-0.005,0,0,0,-0.0057,-0.0057,-0.0064,-0.0058,-0.0063,-0.0076,-0.0078,-0.008,-0.0081,-0.007,-0.0076,-0.0088,-0.0088,-0.0051,-0.005,-0.0022,0,0,0,-0.0056,-0.0052,-0.0063,-0.006,-0.0063,-0.0076,-0.0077,-0.0081,-0.0082,-0.0076,-0.0088,-0.0088,-0.0051,-0.0051,-0.0023,-0.0,0,0,0,-0.0052,-0.0052,-0.0054,-0.0059,-0.0068,-0.0076,-0.0078,-0.0082,-0.0085,-0.0088,-0.0088,-0.0051,-0.0051,-0.0025,-0.0003,0.0021,0,0,0,-0.0046,-0.0041,-0.0054,-0.0047,-0.0067,-0.0059,-0.0079,-0.008,-0.0081,-0.0088,-0.0051,-0.005,-0.0025,-0.0004,0.0019,0.0049,0.0059,0,0,-0.0035,-0.004,-0.0035,-0.0046,-0.0032,-0.0056,-0.0034,-0.005,-0.0065,-0.005,-0.0049,-0.0023,-0.0003,0.002,0.009,0.0099,0,0,0,-0.0028,-0.0023,-0.0021,-0.0017,-0.0017,-0.0006,-0.0023,-0.0027,-0.0027,-0.0062,-0.0016,-0.0004,0.0009,0.0024,0.0031,-0.0047,-0.0047,-0.0047,-0.0047,-0.0001,-0.0002,0.0015,0.002,0.0027,0.0029,0.0036,0.0031,0.0007,0.0011,0.0024,0.0069,0.0085,0.0091,0.0023,0.0023,0.0023,0.0023,0.0023,0.0028,0.0043,0.0047,0.0061,0.0074,0.0092,0.0099,0.0084,0.0094,0.0063,0.0074,0.0059,0.01,0.0026,0.0025,0.0025,0.0025,0.0024,0.0024,0.0053,0.0061,0.0066,0.0091,0.0121,0.013,0.0172,0.0156,0.013,0.0139,0.0146,0.0146,0.0088,0.0137,0.0137,0.0138,0.0138,0.0138,0.0138,0.0076,0.0085,0.0103,0.0124,0.0149,0.0186,0.021,0.0224,0.0216,0.0192,0.0192,0.0107,0.0103,0.0095,0.0141,0.0141,0.014,0.014,0.014,0.0108,0.0106,0.0138,0.016,0.0214,0.0268,0.0287,0.0316,0.0312,0.0316,0.0223,0.022,0.0216,0.021,0.0204,0.0276,0.0276,0.0276,0.0276,0.0128,0.0128,0.017,0.021,0.0267,0.0307,0.0373,0.0394,0.0365,0.0337,0.0334,0.0312,0.0305,0.0304,0.0296,0.029,0.0385,0.0385,0.0385,0.0149,0.0161,0.019,0.022,0.0286,0.0351,0.0401,0.0406,0.0375,0.0389,0.0343,0.0285,0.0243,0.0236,0.0224,0.0215,0.0202,0,0]}],[{"header":{"parameterUnit":"m.s-1","parameterCategory":2,"la1":30.2992,"la2":30.254,"lo1":-89.0895,"lo2":-89.0443,"dy":0.0025,"dx":0.0025,"nx":19,"ny":19,"refTime":"2026-04-06T21:00:00:Z","depth":"4","parameterNumber":2,"parameterNumberName":"U-component_of_CURRENTS"},"data":[0,0,0,0.0809,0.0811,0.0886,0.0887,0.0954,0.0954,0,0,0,0,0,0,0,0,0,0,0,0.0787,0.0788,0.0809,0.0811,0.0886,0.0887,0.0954,0.0954,0,0,0,0,0,0,0,0,0,0,0,0.0787,0.0788,0.0789,0.0811,0.0886,0.0887,0.0954,0.0904,0,0,0,0,0,0,0,0,0,0,0.0834,0.0824,0.0788,0.0789,0.0812,0.0886,0.0887,0.0902,0.0907,0.0911,0,0.093,0,0.0942,0.0958,0.0958,0,0,0,0.0811,0.0819,0.0834,0.0789,0.0813,0.0886,0.0852,0.0905,0.0911,0.0918,0.0931,0.0934,0.0943,0.0958,0.0959,0.1033,0.1033,0,0,0.0807,0.0805,0.083,0.0838,0.0841,0.085,0.0855,0.0909,0.0921,0.0931,0.0935,0.0944,0.0959,0.0959,0.1032,0.1033,0,0,0,0.0795,0.0802,0.0816,0.0835,0.085,0.0852,0.0858,0.0919,0.0922,0.0936,0.0945,0.0959,0.096,0.1032,0.1033,0.1058,0,0,0,0.0792,0.0795,0.0814,0.0815,0.085,0.0891,0.0866,0.0919,0.0925,0.0945,0.0959,0.096,0.1032,0.1032,0.1056,0.1061,0,0,0,0.0782,0.0794,0.0804,0.0814,0.0846,0.089,0.0898,0.0921,0.093,0.0958,0.0961,0.1031,0.1032,0.1054,0.1059,0.1075,0,0,0,0.0775,0.0795,0.0804,0.0834,0.0845,0.089,0.0897,0.0939,0.0965,0.096,0.1032,0.1033,0.1054,0.1058,0.1074,0.0935,0,0,0,0.0791,0.0798,0.0813,0.0823,0.0863,0.0879,0.093,0.0968,0.0979,0.1011,0.1013,0.1056,0.1059,0.1075,0.0989,0,0,0,0,0.0812,0.0825,0.0839,0.0868,0.0897,0.0937,0.0971,0.0991,0.1037,0.0999,0.1068,0.1069,0.1078,0.0994,0.1037,0.1037,0.1037,0.1037,0.1037,0.0824,0.0841,0.087,0.0899,0.0932,0.0983,0.1017,0.1051,0.1058,0.1086,0.1098,0.1138,0.1051,0.1111,0.1111,0.1111,0.1111,0.1111,0.1111,0.0841,0.0854,0.089,0.0926,0.0969,0.1017,0.1072,0.1092,0.1139,0.1133,0.1141,0.1037,0.1114,0.1113,0.1113,0.1113,0.1112,0.1112,0.1112,0.0836,0.0843,0.0878,0.093,0.0987,0.104,0.1085,0.113,0.1161,0.1179,0.1088,0.1156,0.1143,0.1186,0.1186,0.1187,0.1187,0.1187,0.1187,0.081,0.0842,0.0876,0.093,0.0967,0.1022,0.1095,0.1118,0.1158,0.1101,0.1188,0.1163,0.1161,0.1148,0.1188,0.1188,0.1188,0.1188,0.1188,0.0792,0.0815,0.0851,0.0887,0.0951,0.097,0.1055,0.1052,0.1066,0.1042,0.1056,0.1062,0.1038,0.1038,0.102,0.1024,0.1023,0.1021,0,0.0775,0.0789,0.083,0.0863,0.0884,0.0935,0.0913,0.0945,0.0971,0.0937,0.1082,0.1098,0.1101,0.1076,0.1073,0.1052,0,0,0,0.0765,0.0779,0.0793,0.0828,0.0843,0.0845,0.0899,0.0871,0.0966,0.0929,0.098,0.099,0.1122,0.1193,0.1171,0.1168,0.1146,0,0]},{"header":{"parameterUnit":"m.s-1","parameterCategory":2,"la1":30.2992,"la2":30.254,"lo1":-89.0895,"lo2":-89.0443,"dy":0.0025,"dx":0.0025,"nx":19,"ny":19,"refTime":"2026-04-06T21:00:00:Z","depth":"4","parameterNumber":3,"parameterNumberName":"V-component_of_CURRENTS"},"data":[0,0,0,0.0301,0.03,0.0285,0.0285,0.0265,0.0265,0,0,0,0,0,0,0,0,0,0,0,0.0307,0.0307,0.0301,0.03,0.0285,0.0285,0.0266,0.0265,0,0,0,0,0,0,0,0,0,0,0,0.0307,0.0307,0.0307,0.03,0.0285,0.0285,0.0266,0.0276,0,0,0,0,0,0,0,0,0,0,0.0291,0.0297,0.0307,0.0307,0.03,0.0285,0.0285,0.0277,0.0276,0.0273,0,0.0274,0,0.027,0.0264,0.0264,0,0,0,0.0297,0.0298,0.0295,0.0307,0.03,0.0285,0.0291,0.0276,0.0275,0.0272,0.0273,0.0273,0.027,0.0264,0.0264,0.025,0.025,0,0,0.0298,0.0301,0.0296,0.0294,0.03,0.0292,0.0291,0.0275,0.0275,0.0273,0.0272,0.0269,0.0264,0.0264,0.025,0.025,0,0,0,0.0303,0.0302,0.03,0.0295,0.0293,0.0291,0.029,0.0275,0.0275,0.0272,0.0269,0.0264,0.0264,0.025,0.025,0.0265,0,0,0,0.0303,0.0305,0.03,0.0302,0.0293,0.0284,0.0291,0.0276,0.0274,0.0269,0.0264,0.0264,0.025,0.025,0.0265,0.0281,0,0,0,0.0307,0.0305,0.0305,0.0302,0.0297,0.0284,0.0283,0.0276,0.0273,0.0264,0.0264,0.025,0.025,0.0265,0.028,0.0289,0,0,0,0.0309,0.0307,0.0305,0.0303,0.0297,0.0293,0.0283,0.0275,0.0268,0.0264,0.025,0.025,0.0265,0.028,0.0289,0.0288,0,0,0,0.0307,0.0307,0.0306,0.0303,0.0302,0.0295,0.0294,0.0279,0.0265,0.0255,0.0255,0.0265,0.028,0.0289,0.0283,0,0,0,0,0.0305,0.0306,0.0305,0.0304,0.0301,0.0303,0.0289,0.0282,0.0267,0.0262,0.0259,0.0268,0.0274,0.0271,0.025,0.025,0.025,0.025,0.025,0.031,0.0308,0.031,0.0309,0.0309,0.0306,0.0304,0.0292,0.0276,0.0269,0.0276,0.0288,0.0284,0.0265,0.0265,0.0265,0.0265,0.0265,0.0265,0.0313,0.0315,0.0318,0.0319,0.0324,0.0327,0.032,0.0309,0.0301,0.0284,0.0289,0.0281,0.0266,0.0266,0.0266,0.0266,0.0265,0.0265,0.0265,0.0318,0.032,0.0322,0.033,0.0343,0.0344,0.0362,0.0346,0.0321,0.0322,0.0315,0.03,0.0305,0.0321,0.0321,0.0321,0.0321,0.0321,0.0321,0.0323,0.0327,0.0336,0.0344,0.0359,0.0379,0.0385,0.0386,0.0362,0.0339,0.0328,0.0306,0.0305,0.0308,0.0323,0.0322,0.0322,0.0322,0.0322,0.0325,0.0331,0.0346,0.036,0.0392,0.0409,0.0421,0.041,0.0406,0.0388,0.0344,0.0343,0.034,0.0337,0.0342,0.0367,0.0367,0.0367,0,0.0331,0.0332,0.0355,0.038,0.0409,0.0426,0.0435,0.0432,0.0396,0.0382,0.0401,0.0352,0.035,0.0347,0.0344,0.035,0,0,0,0.0334,0.0342,0.0355,0.0376,0.0411,0.0423,0.0435,0.0422,0.04,0.0401,0.0369,0.0368,0.037,0.0328,0.0319,0.0317,0.0323,0,0]}]]